Regional Weather Roundup
Issued by NWS

Home | Current Version | Previous Version | Text Only | Print | Product List | Glossary Off
Versions: 1 2 3 4 5 6 7 8 9 10 11 12 13 14 15 16 17 18 19 20 21 22 23 24 25 26 27 28 29 30 31 32 33 34 35 36 37 38 39 40 41 42 43 44 45 46 47 48 49 50

000
ASUS43 KMKX 190700
RWRWI

WISCONSIN REGIONAL WEATHER ROUNDUP
NATIONAL WEATHER SERVICE MILWAUKEE/SULLIVAN WI
100 AM CST MON FEB 19 2018

NOTE: "FAIR" INDICATES FEW OR NO CLOUDS BELOW 12,000 FEET WITH NO
SIGNIFICANT WEATHER AND/OR OBSTRUCTIONS TO VISIBILITY.

WIZ001-002-006>008-014>016-023>028-190800-
NORTHWEST WISCONSIN

CITY           SKY/WX    TMP DP  RH WIND       PRES   REMARKS
SUPERIOR ARPT  CLOUDY    19  12  76 N9        29.93R WCI   7
ASHLAND        LGT SNOW  20  19  96 N16       29.90R FOG     WCI   6
HAYWARD        CLOUDY    24  21  88 NE17G26   29.79F WCI  11
SIREN          LGT SNOW  26  21  82 NE10G17   29.81S WCI  15
CUMBERLAND     CLOUDY    27  21  80 N13       29.75S WCI  16
RICE LAKE      MOCLDY    30  26  84 N6        29.78R WCI  24
CHETEK         FAIR      28  25  86 NW3       29.75R
LADYSMITH      CLOUDY    34  27  75 E5        29.77R WCI  29
EAU CLAIRE     NOT AVBL
MENOMONIE      MOCLDY    32  27  83 CALM      29.74R
NEW RICHMOND   FAIR      26  22  85 N10       29.76R WCI  16
OSCEOLA        CLOUDY    27  22  83 N9        29.80R WCI  18
$$

WIZ003>005-009-010-017-018-190800-
NORTH CENTRAL WISCONSIN

CITY           SKY/WX    TMP DP  RH WIND       PRES   REMARKS
MANITOWISH WTR CLOUDY    30  25  80 CALM      29.78R
ARBOR VITAE    CLOUDY    34  28  77 SW3       29.77R
WOODRUFF       CLOUDY    34  28  77 SW3       29.77R
RHINELANDER    CLOUDY    32  26  78 S6        29.77R WCI  26
EAGLE RIVER    CLOUDY    32  24  72 SW3       29.77R
LAND O LAKES   CLOUDY    33  25  73 CALM      29.78R
PHILLIPS       CLOUDY    32  26  79 CALM      29.77R
TOMAHAWK       CLOUDY    31  25  78 CALM      29.78R
MEDFORD        CLOUDY    30  25  81 E3        29.76R
MERRILL        CLOUDY    31  26  80 CALM      29.78R
$$

WIZ029-030-035-036-043>047-190800-
CENTRAL WISCONSIN

CITY           SKY/WX    TMP DP  RH WIND       PRES   REMARKS
WAUSAU         CLOUDY    29  25  85 E5        29.76R WCI  24
MOSINEE        CLOUDY    30  27  86 SE5       29.78R WCI  25
MARSHFIELD     CLOUDY    29  25  85 S5        29.74S WCI  24
STEVENS POINT  FAIR      27  27  98 CALM      29.78S
WAUPACA        CLOUDY    37  30  77 S6        29.80F WCI  32
WAUTOMA        FAIR      34  29  82 SE3       29.79F
WISC RAPIDS    FAIR      26  23  88 SE3       29.77F
CAMP DOUGLAS   FAIR      35  29  77 S3        29.75S
$$

WIZ011>013-019>022-031-037>040-048>050-190800-
NORTHEAST WISCONSIN

CITY           SKY/WX    TMP DP  RH WIND       PRES   REMARKS
ANTIGO         MOCLDY    24  22  93 SE3       29.78R
SHAWANO        CLOUDY    35  28  75 CALM      29.80F
OCONTO         CLOUDY    33  28  82 CALM      29.83F
STURGEON BAY   CLOUDY    35  31  85 S12       29.84F WCI  27
GREEN BAY      CLOUDY    35  27  72 S7        29.82F WCI  29
MANITOWOC      FAIR      33  30  88 S8        29.84F WCI  26
APPLETON       CLOUDY    32  27  80 S7        29.79F WCI  26
CLINTONVILLE   CLOUDY    34  27  77 S5        29.81S WCI  29
OSHKOSH        MOCLDY    34  29  82 S7        29.80F WCI  28
$$

WIZ032>034-041-042-053>061-190800-
SOUTHWEST WISCONSIN

CITY           SKY/WX    TMP DP  RH WIND       PRES   REMARKS
LA CROSSE      CLOUDY    40  30  67 SE5       29.74R
SPARTA         CLOUDY    38  30  73 CALM      29.76S
VIROQUA        CLOUDY    36  31  83 S9        29.75S WCI  29
BOSCOBEL       CLOUDY    34  28  79 CALM      29.78S
PRAIRIE DU CHI CLOUDY    40  28  62 SE5       29.76S
PLATTEVILLE    CLOUDY    37  32  81 S8        29.78S WCI  31
$$

WIZ056-057-062-063-064-067-068-190800-
SOUTH CENTRAL WISCONSIN

CITY           SKY/WX    TMP DP  RH WIND       PRES   REMARKS
REEDSBURG      FAIR      35  30  81 CALM      29.77S
BARABOO/DELLS  FAIR      37  30  75 S8        29.77S WCI  30
LONE ROCK      NOT AVBL
MINERAL POINT  CLOUDY    37  36  93 SE8       29.77F WCI  31
MADISON        CLOUDY    36  31  82 S7        29.81F WCI  30
MIDDLETON      CLOUDY    38  32  78 S7        29.80S WCI  33
WATERTOWN      MOCLDY    36  32  85 S5        29.82F WCI  32
MONROE         CLOUDY    36  32  87 S16       29.78F WCI  26
JANESVILLE     MOCLDY    39  32  75 S9        29.81F WCI  33
$$

WIZ051-052-058>065-066-070>072-190800-
SOUTHEAST WISCONSIN

CITY           SKY/WX    TMP DP  RH WIND       PRES   REMARKS
MILWAUKEE      CLOUDY    36  31  82 CALM      29.84F
WAUKESHA       CLOUDY    36  28  75 S5        29.84F WCI  32
MILWAUKEE/TIMM CLOUDY    34  28  80 SE3       29.86F
RACINE         CLOUDY    36  32  85 S6        29.87F WCI  31
BURLINGTON     CLOUDY    39  30  71 S12G17    29.84F WCI  32
KENOSHA        CLOUDY    41  30  65 S13G21    29.85F
FOND DU LAC    MOCLDY    36  28  73 S10       29.81F WCI  28
SHEBOYGAN      FAIR      32  31  96 S9        29.83F WCI  24
WEST BEND      MOCLDY    32  32 100 CALM      29.83F
JUNEAU         CLOUDY    35  30  82 S10       29.82F WCI  28
$$

LSZ147-162-190800-
LAKE SUPERIOR

STATION/POSITION TIME  TEMP    WIND        PRES    WAVE
                       AIR SEA DIR/SP/G            HT/PER
                 (UTC) (F)     (DEG/KT/KT) (MB)    (FT/S)
DEVILS ISLAND    0600   21      20/ 17/ 20 1014.1R
SAXON HARBOR     0630   25      50/ 18/ 20 1011.5R
$$

LMZ867-665-643>646-190800-
LAKE MICHIGAN

STATION/POSITION TIME  TEMP    WIND        PRES    WAVE
                       AIR SEA DIR/SP/G            HT/PER
                 (UTC) (F)     (DEG/KT/KT) (MB)    (FT/S)
NORTHPORT PIER   0640   35                 1010.5F
KEWAUNEE LAKESHO 0630   34     180/ 12/ 15 1010.2F
SHEBOYGAN LAKESH 0600   35     180/ 17/ 19 1011.6F
PORT WASHINGTON  0630   34     190/  4/  6 1012.2F
MILWAUKEE LAKESH 0630   34     140/  9/  9   N/A
KENOSHA   LAKESH 0600   35     160/  7/  8 1011.9
$$

TC  - TEMPERATURE IN CELSIUS
VSB - VISIBILITY IN STATUTE MILES
WCI - WIND CHILL INDEX
HX  - HEAT INDEX





USA.gov is the U.S. government's official web portal to all federal, state and local government web resources and services.